Year,Month,Day,Hour,Minute,Value (Times are PST for windgust in km/hr)
2018,01,28,00,01,1.60
2018,01,28,00,02,3.20
2018,01,28,00,03,1.60
2018,01,28,00,06,3.20
2018,01,28,00,07,1.60
2018,01,28,00,11,4.80
2018,01,28,00,12,1.60
2018,01,28,00,13,1.60
2018,01,28,00,14,4.80
2018,01,28,00,15,6.40
2018,01,28,00,16,6.40
2018,01,28,00,17,4.80
2018,01,28,00,18,1.60
2018,01,28,00,19,4.80
2018,01,28,00,20,3.20
2018,01,28,00,21,3.20
2018,01,28,00,22,1.60
2018,01,28,00,23,1.60
2018,01,28,00,24,1.60
2018,01,28,00,25,1.60
2018,01,28,00,26,12.90
2018,01,28,00,27,8.10
2018,01,28,00,28,9.60
2018,01,28,00,29,8.10
2018,01,28,00,30,4.80
2018,01,28,00,31,6.40
2018,01,28,00,32,6.40
2018,01,28,00,33,6.40
2018,01,28,00,34,6.40
2018,01,28,00,35,3.20
2018,01,28,00,36,3.20
2018,01,28,00,37,8.10
2018,01,28,00,38,6.40
2018,01,28,00,39,6.40
2018,01,28,00,40,8.10
2018,01,28,00,41,6.40
2018,01,28,00,42,1.60
2018,01,28,00,43,6.40
2018,01,28,00,44,8.10
2018,01,28,00,45,3.20
2018,01,28,00,46,6.40
2018,01,28,00,47,8.10
2018,01,28,00,48,6.40
2018,01,28,00,49,11.30
2018,01,28,00,50,8.10
2018,01,28,00,51,9.60
2018,01,28,00,52,6.40
2018,01,28,00,53,4.80
2018,01,28,00,54,4.80
2018,01,28,00,55,8.10
2018,01,28,00,56,6.40
2018,01,28,00,57,8.10
2018,01,28,00,58,4.80
2018,01,28,00,59,4.80
2018,01,28,01,00,6.40
2018,01,28,01,01,6.40
2018,01,28,01,02,6.40
2018,01,28,01,03,6.40
2018,01,28,01,04,8.10
2018,01,28,01,05,6.40
2018,01,28,01,06,4.80
2018,01,28,01,07,6.40
2018,01,28,01,08,6.40
2018,01,28,01,09,6.40
2018,01,28,01,10,4.80
2018,01,28,01,11,4.80
2018,01,28,01,12,6.40
2018,01,28,01,13,8.10
2018,01,28,01,14,6.40
2018,01,28,01,15,6.40
2018,01,28,01,16,4.80
2018,01,28,01,17,8.10
2018,01,28,01,18,8.10
2018,01,28,01,19,8.10
2018,01,28,01,20,8.10
2018,01,28,01,21,6.40
2018,01,28,01,22,6.40
2018,01,28,01,23,6.40
2018,01,28,01,24,6.40
2018,01,28,01,25,11.30
2018,01,28,01,26,8.10
2018,01,28,01,27,8.10
2018,01,28,01,28,8.10
2018,01,28,01,29,6.40
2018,01,28,01,30,11.30
2018,01,28,01,31,8.10
2018,01,28,01,32,8.10
2018,01,28,01,33,8.10
2018,01,28,01,34,9.60
2018,01,28,01,35,9.60
2018,01,28,01,36,8.10
2018,01,28,01,37,8.10
2018,01,28,01,38,6.40
2018,01,28,01,39,6.40
2018,01,28,01,40,11.30
2018,01,28,01,41,6.40
2018,01,28,01,42,9.60
2018,01,28,01,43,9.60
2018,01,28,01,44,9.60
2018,01,28,01,45,4.80
2018,01,28,01,46,9.60
2018,01,28,01,47,8.10
2018,01,28,01,48,6.40
2018,01,28,01,49,6.40
2018,01,28,01,50,8.10
2018,01,28,01,51,6.40
2018,01,28,01,52,4.80
2018,01,28,01,53,8.10
2018,01,28,01,54,8.10
2018,01,28,01,55,6.40
2018,01,28,01,56,8.10
2018,01,28,01,57,6.40
2018,01,28,01,58,4.80
2018,01,28,01,59,6.40
2018,01,28,02,00,6.40
2018,01,28,02,01,6.40
2018,01,28,02,02,4.80
2018,01,28,02,03,8.10
2018,01,28,02,04,8.10
2018,01,28,02,05,11.30
2018,01,28,02,06,6.40
2018,01,28,02,07,4.80
2018,01,28,02,08,8.10
2018,01,28,02,09,3.20
2018,01,28,02,10,3.20
2018,01,28,02,11,4.80
2018,01,28,02,12,8.10
2018,01,28,02,13,8.10
2018,01,28,02,14,6.40
2018,01,28,02,15,6.40
2018,01,28,02,16,9.60
2018,01,28,02,17,3.20
2018,01,28,02,18,6.40
2018,01,28,02,19,8.10
2018,01,28,02,20,4.80
2018,01,28,02,21,4.80
2018,01,28,02,22,4.80
2018,01,28,02,23,3.20
2018,01,28,02,24,6.40
2018,01,28,02,25,3.20
2018,01,28,02,26,3.20
2018,01,28,02,27,4.80
2018,01,28,02,28,1.60
2018,01,28,02,29,1.60
2018,01,28,02,30,3.20
2018,01,28,02,31,3.20
2018,01,28,02,32,4.80
2018,01,28,02,33,4.80
2018,01,28,02,34,4.80
2018,01,28,02,35,3.20
2018,01,28,02,36,3.20
2018,01,28,02,37,4.80
2018,01,28,02,38,1.60
2018,01,28,02,39,3.20
2018,01,28,02,40,6.40
2018,01,28,02,41,3.20
2018,01,28,02,42,4.80
2018,01,28,02,43,3.20
2018,01,28,02,44,6.40
2018,01,28,02,45,8.10
2018,01,28,02,46,9.60
2018,01,28,02,47,11.30
2018,01,28,02,48,4.80
2018,01,28,02,49,8.10
2018,01,28,02,50,9.60
2018,01,28,02,51,6.40
2018,01,28,02,52,9.60
2018,01,28,02,53,8.10
2018,01,28,02,54,8.10
2018,01,28,02,55,3.20
2018,01,28,02,56,1.60
2018,01,28,02,57,8.10
2018,01,28,02,58,6.40
2018,01,28,02,59,3.20
2018,01,28,03,02,3.20
2018,01,28,03,03,3.20
2018,01,28,03,04,3.20
2018,01,28,03,08,3.20
2018,01,28,03,12,1.60
2018,01,28,03,13,3.20
2018,01,28,03,14,1.60
2018,01,28,03,15,1.60
2018,01,28,03,16,1.60
2018,01,28,03,24,1.60
2018,01,28,03,25,1.60
2018,01,28,03,26,1.60
2018,01,28,03,27,1.60
2018,01,28,03,28,1.60
2018,01,28,03,29,1.60
2018,01,28,03,31,1.60
2018,01,28,03,32,3.20
2018,01,28,03,33,4.80
2018,01,28,03,34,3.20
2018,01,28,03,35,3.20
2018,01,28,03,36,3.20
2018,01,28,03,42,1.60
2018,01,28,03,43,4.80
2018,01,28,03,44,4.80
2018,01,28,03,45,3.20
2018,01,28,03,49,1.60
2018,01,28,03,52,1.60
2018,01,28,03,53,1.60
2018,01,28,03,54,1.60
2018,01,28,04,00,1.60
2018,01,28,04,01,1.60
2018,01,28,04,02,1.60
2018,01,28,04,03,3.20
2018,01,28,04,06,3.20
2018,01,28,04,07,4.80
2018,01,28,04,08,3.20
2018,01,28,04,09,3.20
2018,01,28,04,10,4.80
2018,01,28,04,11,4.80
2018,01,28,04,12,4.80
2018,01,28,04,13,3.20
2018,01,28,04,14,1.60
2018,01,28,04,15,3.20
2018,01,28,04,16,8.10
2018,01,28,04,17,1.60
2018,01,28,04,18,6.40
2018,01,28,04,19,4.80
2018,01,28,04,20,6.40
2018,01,28,04,21,4.80
2018,01,28,04,22,1.60
2018,01,28,04,23,1.60
2018,01,28,04,24,3.20
2018,01,28,04,25,3.20
2018,01,28,04,26,3.20
2018,01,28,04,27,3.20
2018,01,28,04,28,1.60
2018,01,28,04,30,3.20
2018,01,28,04,31,4.80
2018,01,28,04,32,3.20
2018,01,28,04,33,1.60
2018,01,28,04,34,1.60
2018,01,28,04,35,1.60
2018,01,28,04,36,1.60
2018,01,28,04,37,3.20
2018,01,28,04,38,1.60
2018,01,28,04,39,1.60
2018,01,28,04,41,1.60
2018,01,28,04,42,3.20
2018,01,28,04,43,1.60
2018,01,28,04,44,1.60
2018,01,28,04,45,1.60
2018,01,28,04,46,3.20
2018,01,28,04,47,1.60
2018,01,28,04,48,1.60
2018,01,28,04,49,3.20
2018,01,28,04,50,1.60
2018,01,28,04,51,1.60
2018,01,28,04,52,1.60
2018,01,28,04,53,1.60
2018,01,28,04,54,3.20
2018,01,28,04,55,4.80
2018,01,28,04,56,4.80
2018,01,28,04,57,3.20
2018,01,28,04,58,1.60
2018,01,28,04,59,3.20
2018,01,28,05,00,3.20
2018,01,28,05,01,1.60
2018,01,28,05,04,3.20
2018,01,28,05,05,3.20
2018,01,28,05,06,4.80
2018,01,28,05,07,6.40
2018,01,28,05,09,3.20
2018,01,28,05,10,6.40
2018,01,28,05,11,11.30
2018,01,28,05,12,14.50
2018,01,28,05,13,11.30
2018,01,28,05,14,6.40
2018,01,28,05,15,8.10
2018,01,28,05,16,4.80
2018,01,28,05,17,4.80
2018,01,28,05,18,11.30
2018,01,28,05,19,12.90
2018,01,28,05,20,8.10
2018,01,28,05,21,12.90
2018,01,28,05,22,11.30
2018,01,28,05,23,11.30
2018,01,28,05,24,16.10
2018,01,28,05,25,8.10
2018,01,28,05,26,6.40
2018,01,28,05,27,4.80
2018,01,28,05,28,4.80
2018,01,28,05,29,4.80
2018,01,28,05,30,1.60
2018,01,28,05,31,3.20
2018,01,28,05,32,6.40
2018,01,28,05,33,6.40
2018,01,28,05,34,6.40
2018,01,28,05,35,3.20
2018,01,28,05,36,4.80
2018,01,28,05,37,1.60
2018,01,28,05,38,8.10
2018,01,28,05,39,3.20
2018,01,28,05,40,1.60
2018,01,28,05,41,1.60
2018,01,28,05,42,1.60
2018,01,28,05,43,6.40
2018,01,28,05,44,1.60
2018,01,28,05,45,1.60
2018,01,28,05,46,4.80
2018,01,28,05,47,3.20
2018,01,28,05,48,4.80
2018,01,28,05,49,3.20
2018,01,28,05,50,8.10
2018,01,28,05,51,6.40
2018,01,28,05,52,4.80
2018,01,28,05,53,1.60
2018,01,28,05,56,3.20
2018,01,28,05,57,3.20
2018,01,28,05,58,3.20
2018,01,28,05,59,1.60
2018,01,28,06,00,1.60
2018,01,28,06,01,1.60
2018,01,28,06,02,1.60
2018,01,28,06,03,1.60
2018,01,28,06,05,8.10
2018,01,28,06,06,1.60
2018,01,28,06,08,4.80
2018,01,28,06,09,14.50
2018,01,28,06,10,11.30
2018,01,28,06,11,3.20
2018,01,28,06,12,3.20
2018,01,28,06,13,8.10
2018,01,28,06,14,6.40
2018,01,28,06,15,11.30
2018,01,28,06,16,11.30
2018,01,28,06,17,11.30
2018,01,28,06,18,4.80
2018,01,28,06,19,1.60
2018,01,28,06,20,3.20
2018,01,28,06,21,8.10
2018,01,28,06,22,3.20
2018,01,28,06,23,1.60
2018,01,28,06,24,4.80
2018,01,28,06,25,4.80
2018,01,28,06,26,1.60
2018,01,28,06,27,3.20
2018,01,28,06,28,3.20
2018,01,28,06,29,3.20
2018,01,28,06,30,4.80
2018,01,28,06,32,1.60
2018,01,28,06,33,1.60
2018,01,28,06,34,1.60
2018,01,28,06,35,3.20
2018,01,28,06,36,3.20
2018,01,28,06,37,4.80
2018,01,28,06,38,4.80
2018,01,28,06,39,4.80
2018,01,28,06,40,11.30
2018,01,28,06,41,6.40
2018,01,28,06,42,3.20
2018,01,28,06,43,4.80
2018,01,28,06,44,3.20
2018,01,28,06,45,4.80
2018,01,28,06,46,6.40
2018,01,28,06,47,3.20
2018,01,28,06,48,9.60
2018,01,28,06,49,6.40
2018,01,28,06,50,3.20
2018,01,28,06,51,3.20
2018,01,28,06,52,6.40
2018,01,28,06,53,8.10
2018,01,28,06,54,1.60
2018,01,28,06,56,3.20
2018,01,28,06,59,1.60
2018,01,28,07,01,1.60
2018,01,28,07,02,1.60
2018,01,28,07,04,1.60
2018,01,28,07,05,1.60
2018,01,28,07,06,1.60
2018,01,28,07,07,11.30
2018,01,28,07,08,4.80
2018,01,28,07,09,4.80
2018,01,28,07,10,1.60
2018,01,28,07,11,3.20
2018,01,28,07,12,6.40
2018,01,28,07,13,3.20
2018,01,28,07,14,3.20
2018,01,28,07,15,3.20
2018,01,28,07,16,1.60
2018,01,28,07,17,3.20
2018,01,28,07,18,4.80
2018,01,28,07,19,12.90
2018,01,28,07,20,6.40
2018,01,28,07,21,3.20
2018,01,28,07,22,3.20
2018,01,28,07,23,12.90
2018,01,28,07,24,11.30
2018,01,28,07,25,8.10
2018,01,28,07,26,4.80
2018,01,28,07,27,8.10
2018,01,28,07,28,4.80
2018,01,28,07,29,8.10
2018,01,28,07,30,4.80
2018,01,28,07,31,4.80
2018,01,28,07,32,8.10
2018,01,28,07,33,9.60
2018,01,28,07,34,6.40
2018,01,28,07,35,4.80
2018,01,28,07,36,8.10
2018,01,28,07,37,6.40
2018,01,28,07,38,4.80
2018,01,28,07,39,6.40
2018,01,28,07,40,8.10
2018,01,28,07,41,8.10
2018,01,28,07,42,6.40
2018,01,28,07,43,4.80
2018,01,28,07,44,1.60
2018,01,28,07,45,6.40
2018,01,28,07,46,3.20
2018,01,28,07,47,6.40
2018,01,28,07,48,1.60
2018,01,28,07,49,3.20
2018,01,28,07,50,6.40
2018,01,28,07,51,4.80
2018,01,28,07,52,6.40
2018,01,28,07,53,3.20
2018,01,28,07,54,4.80
2018,01,28,07,55,3.20
2018,01,28,07,56,3.20
2018,01,28,07,57,3.20
2018,01,28,07,58,4.80
2018,01,28,07,59,4.80
2018,01,28,08,00,3.20
2018,01,28,08,01,3.20
2018,01,28,08,02,3.20
2018,01,28,08,03,4.80
2018,01,28,08,04,4.80
2018,01,28,08,05,4.80
2018,01,28,08,06,3.20
2018,01,28,08,07,3.20
2018,01,28,08,08,1.60
2018,01,28,08,09,1.60
2018,01,28,08,10,3.20
2018,01,28,08,11,4.80
2018,01,28,08,12,8.10
2018,01,28,08,13,12.90
2018,01,28,08,14,11.30
2018,01,28,08,15,6.40
2018,01,28,08,16,3.20
2018,01,28,08,17,4.80
2018,01,28,08,18,3.20
2018,01,28,08,19,6.40
2018,01,28,08,20,8.10
2018,01,28,08,21,8.10
2018,01,28,08,22,6.40
2018,01,28,08,23,8.10
2018,01,28,08,24,6.40
2018,01,28,08,25,4.80
2018,01,28,08,26,6.40
2018,01,28,08,27,4.80
2018,01,28,08,28,4.80
2018,01,28,08,29,4.80
2018,01,28,08,30,4.80
2018,01,28,08,31,3.20
2018,01,28,08,32,4.80
2018,01,28,08,33,4.80
2018,01,28,08,34,4.80
2018,01,28,08,35,8.10
2018,01,28,08,36,3.20
2018,01,28,08,37,6.40
2018,01,28,08,38,3.20
2018,01,28,08,39,1.60
2018,01,28,08,40,3.20
2018,01,28,08,41,3.20
2018,01,28,08,42,4.80
2018,01,28,08,43,8.10
2018,01,28,08,44,3.20
2018,01,28,08,45,4.80
2018,01,28,08,46,8.10
2018,01,28,08,47,8.10
2018,01,28,08,48,1.60
2018,01,28,08,49,3.20
2018,01,28,08,50,6.40
2018,01,28,08,51,4.80
2018,01,28,08,52,3.20
2018,01,28,08,53,3.20
2018,01,28,08,54,3.20
2018,01,28,08,55,3.20
2018,01,28,08,56,6.40
2018,01,28,08,57,4.80
2018,01,28,08,58,4.80
2018,01,28,08,59,6.40
2018,01,28,09,00,6.40
2018,01,28,09,01,4.80
2018,01,28,09,02,3.20
2018,01,28,09,03,6.40
2018,01,28,09,04,8.10
2018,01,28,09,05,3.20
2018,01,28,09,10,4.80
2018,01,28,09,11,4.80
2018,01,28,09,12,4.80
2018,01,28,09,13,6.40
2018,01,28,09,14,8.10
2018,01,28,09,15,9.60
2018,01,28,09,16,4.80
2018,01,28,09,17,8.10
2018,01,28,09,18,8.10
2018,01,28,09,19,3.20
2018,01,28,09,20,1.60
2018,01,28,09,21,1.60
2018,01,28,09,22,3.20
2018,01,28,09,23,8.10
2018,01,28,09,24,9.60
2018,01,28,09,25,4.80
2018,01,28,09,26,1.60
2018,01,28,09,27,1.60
2018,01,28,09,28,3.20
2018,01,28,09,29,6.40
2018,01,28,09,30,6.40
2018,01,28,09,31,3.20
2018,01,28,09,32,3.20
2018,01,28,09,34,3.20
2018,01,28,09,35,1.60
2018,01,28,09,36,3.20
2018,01,28,09,38,1.60
2018,01,28,09,41,3.20
2018,01,28,09,42,4.80
2018,01,28,09,43,3.20
2018,01,28,09,44,4.80
2018,01,28,09,45,1.60
2018,01,28,09,46,1.60
2018,01,28,09,49,3.20
2018,01,28,09,50,3.20
2018,01,28,09,51,6.40
2018,01,28,09,52,1.60
2018,01,28,09,53,1.60
2018,01,28,09,54,1.60
2018,01,28,09,55,3.20
2018,01,28,09,56,3.20
2018,01,28,09,57,4.80
2018,01,28,09,58,4.80
2018,01,28,09,59,3.20
2018,01,28,10,00,1.60
2018,01,28,10,01,4.80
2018,01,28,10,02,4.80
2018,01,28,10,03,6.40
2018,01,28,10,04,1.60
2018,01,28,10,05,3.20
2018,01,28,10,06,6.40
2018,01,28,10,07,1.60
2018,01,28,10,08,1.60
2018,01,28,10,09,4.80
2018,01,28,10,10,1.60
2018,01,28,10,11,3.20
2018,01,28,10,12,1.60
2018,01,28,10,18,1.60
2018,01,28,10,19,3.20
2018,01,28,10,20,1.60
2018,01,28,10,21,1.60
2018,01,28,10,22,1.60
2018,01,28,10,23,1.60
2018,01,28,10,24,3.20
2018,01,28,10,25,3.20
2018,01,28,10,26,1.60
2018,01,28,10,27,1.60
2018,01,28,10,28,1.60
2018,01,28,10,32,1.60
2018,01,28,10,33,1.60
2018,01,28,10,35,4.80
2018,01,28,10,36,1.60
2018,01,28,10,38,1.60
2018,01,28,10,39,1.60
2018,01,28,10,40,3.20
2018,01,28,10,41,1.60
2018,01,28,10,42,1.60
2018,01,28,10,43,1.60
2018,01,28,10,44,4.80
2018,01,28,10,45,4.80
2018,01,28,10,46,1.60
2018,01,28,10,47,3.20
2018,01,28,10,48,4.80
2018,01,28,10,49,3.20
2018,01,28,10,50,1.60
2018,01,28,10,51,3.20
2018,01,28,10,52,3.20
2018,01,28,10,53,4.80
2018,01,28,10,54,6.40
2018,01,28,10,55,6.40
2018,01,28,10,56,3.20
2018,01,28,10,57,8.10
2018,01,28,10,58,11.30
2018,01,28,10,59,11.30
2018,01,28,11,00,8.10
2018,01,28,11,01,6.40
2018,01,28,11,02,8.10
2018,01,28,11,03,8.10
2018,01,28,11,04,3.20
2018,01,28,11,05,4.80
2018,01,28,11,06,4.80
2018,01,28,11,07,6.40
2018,01,28,11,08,4.80
2018,01,28,11,09,4.80
2018,01,28,11,10,6.40
2018,01,28,11,11,8.10
2018,01,28,11,12,9.60
2018,01,28,11,13,8.10
2018,01,28,11,14,8.10
2018,01,28,11,15,8.10
2018,01,28,11,16,4.80
2018,01,28,11,17,4.80
2018,01,28,11,18,8.10
2018,01,28,11,19,9.60
2018,01,28,11,20,9.60
2018,01,28,11,21,8.10
2018,01,28,11,22,6.40
2018,01,28,11,23,6.40
2018,01,28,11,24,9.60
2018,01,28,11,25,9.60
2018,01,28,11,26,4.80
2018,01,28,11,27,8.10
2018,01,28,11,28,9.60
2018,01,28,11,29,8.10
2018,01,28,11,30,8.10
2018,01,28,11,31,8.10
2018,01,28,11,32,6.40
2018,01,28,11,33,4.80
2018,01,28,11,34,4.80
2018,01,28,11,35,8.10
2018,01,28,11,36,6.40
2018,01,28,11,37,4.80
2018,01,28,11,38,4.80
2018,01,28,11,39,6.40
2018,01,28,11,40,6.40
2018,01,28,11,41,6.40
2018,01,28,11,42,6.40
2018,01,28,11,43,8.10
2018,01,28,11,44,6.40
2018,01,28,11,45,8.10
2018,01,28,11,46,8.10
2018,01,28,11,47,8.10
2018,01,28,11,48,6.40
2018,01,28,11,49,8.10
2018,01,28,11,50,6.40
2018,01,28,11,51,6.40
2018,01,28,11,52,4.80
2018,01,28,11,53,6.40
2018,01,28,11,54,6.40
2018,01,28,11,55,6.40
2018,01,28,11,56,6.40
2018,01,28,11,57,4.80
2018,01,28,11,58,4.80
2018,01,28,11,59,3.20
2018,01,28,12,00,4.80
2018,01,28,12,01,6.40
2018,01,28,12,02,6.40
2018,01,28,12,03,4.80
2018,01,28,12,04,3.20
2018,01,28,12,05,4.80
2018,01,28,12,06,4.80
2018,01,28,12,07,3.20
2018,01,28,12,08,4.80
2018,01,28,12,09,6.40
2018,01,28,12,10,6.40
2018,01,28,12,11,9.60
2018,01,28,12,12,8.10
2018,01,28,12,13,8.10
2018,01,28,12,14,4.80
2018,01,28,12,15,3.20
2018,01,28,12,16,4.80
2018,01,28,12,17,4.80
2018,01,28,12,18,6.40
2018,01,28,12,19,4.80
2018,01,28,12,20,1.60
2018,01,28,12,23,1.60
2018,01,28,12,24,3.20
2018,01,28,12,25,4.80
2018,01,28,12,26,4.80
2018,01,28,12,27,4.80
2018,01,28,12,29,1.60
2018,01,28,12,30,3.20
2018,01,28,12,31,1.60
2018,01,28,12,32,3.20
2018,01,28,12,33,3.20
2018,01,28,12,34,4.80
2018,01,28,12,35,6.40
2018,01,28,12,36,6.40
2018,01,28,12,37,4.80
2018,01,28,12,38,4.80
2018,01,28,12,39,6.40
2018,01,28,12,40,4.80
2018,01,28,12,41,6.40
2018,01,28,12,42,9.60
2018,01,28,12,43,9.60
2018,01,28,12,44,8.10
2018,01,28,12,45,6.40
2018,01,28,12,46,4.80
2018,01,28,12,47,4.80
2018,01,28,12,48,6.40
2018,01,28,12,49,6.40
2018,01,28,12,50,6.40
2018,01,28,12,51,6.40
2018,01,28,12,52,4.80
2018,01,28,12,53,3.20
2018,01,28,12,54,1.60
2018,01,28,12,56,1.60
2018,01,28,12,57,3.20
2018,01,28,12,58,1.60
2018,01,28,12,59,1.60
2018,01,28,13,00,1.60
2018,01,28,13,02,3.20
2018,01,28,13,03,3.20
2018,01,28,13,04,4.80
2018,01,28,13,05,4.80
2018,01,28,13,06,3.20
2018,01,28,13,07,4.80
2018,01,28,13,08,3.20
2018,01,28,13,09,1.60
2018,01,28,13,10,3.20
2018,01,28,13,11,4.80
2018,01,28,13,12,6.40
2018,01,28,13,13,4.80
2018,01,28,13,14,4.80
2018,01,28,13,15,4.80
2018,01,28,13,16,4.80
2018,01,28,13,17,4.80
2018,01,28,13,18,4.80
2018,01,28,13,19,4.80
2018,01,28,13,20,4.80
2018,01,28,13,21,8.10
2018,01,28,13,22,9.60
2018,01,28,13,23,6.40
2018,01,28,13,24,4.80
2018,01,28,13,25,6.40
2018,01,28,13,26,4.80
2018,01,28,13,27,4.80
2018,01,28,13,28,4.80
2018,01,28,13,29,3.20
2018,01,28,13,30,4.80
2018,01,28,13,31,3.20
2018,01,28,13,32,3.20
2018,01,28,13,33,4.80
2018,01,28,13,34,4.80
2018,01,28,13,35,4.80
2018,01,28,13,36,4.80
2018,01,28,13,37,4.80
2018,01,28,13,38,4.80
2018,01,28,13,39,8.10
2018,01,28,13,40,8.10
2018,01,28,13,41,6.40
2018,01,28,13,42,9.60
2018,01,28,13,43,8.10
2018,01,28,13,44,6.40
2018,01,28,13,45,4.80
2018,01,28,13,46,4.80
2018,01,28,13,47,6.40
2018,01,28,13,48,6.40
2018,01,28,13,49,4.80
2018,01,28,13,50,6.40
2018,01,28,13,51,4.80
2018,01,28,13,52,4.80
2018,01,28,13,53,4.80
2018,01,28,13,54,4.80
2018,01,28,13,55,1.60
2018,01,28,13,56,1.60
2018,01,28,13,58,1.60
2018,01,28,13,59,3.20
2018,01,28,14,00,1.60
2018,01,28,14,01,3.20
2018,01,28,14,02,1.60
2018,01,28,14,03,6.40
2018,01,28,14,04,6.40
2018,01,28,14,05,6.40
2018,01,28,14,06,6.40
2018,01,28,14,07,6.40
2018,01,28,14,08,4.80
2018,01,28,14,09,1.60
2018,01,28,14,10,1.60
2018,01,28,14,11,1.60
2018,01,28,14,12,4.80
2018,01,28,14,13,6.40
2018,01,28,14,14,6.40
2018,01,28,14,15,8.10
2018,01,28,14,16,6.40
2018,01,28,14,17,6.40
2018,01,28,14,18,6.40
2018,01,28,14,19,4.80
2018,01,28,14,20,4.80
2018,01,28,14,21,6.40
2018,01,28,14,22,6.40
2018,01,28,14,23,6.40
2018,01,28,14,24,8.10
2018,01,28,14,25,8.10
2018,01,28,14,26,8.10
2018,01,28,14,27,6.40
2018,01,28,14,28,6.40
2018,01,28,14,29,4.80
2018,01,28,14,30,4.80
2018,01,28,14,31,3.20
2018,01,28,14,32,1.60
2018,01,28,14,33,1.60
2018,01,28,14,34,1.60
2018,01,28,14,41,1.60
2018,01,28,14,42,3.20
2018,01,28,14,43,3.20
2018,01,28,14,44,3.20
2018,01,28,14,45,3.20
2018,01,28,14,46,3.20
2018,01,28,14,47,1.60
2018,01,28,14,48,1.60
2018,01,28,14,49,3.20
2018,01,28,14,50,3.20
2018,01,28,14,51,6.40
2018,01,28,14,52,6.40
2018,01,28,14,53,4.80
2018,01,28,14,54,8.10
2018,01,28,14,55,8.10
2018,01,28,14,56,8.10
2018,01,28,14,57,8.10
2018,01,28,14,58,8.10
2018,01,28,14,59,6.40
2018,01,28,15,00,8.10
2018,01,28,15,01,6.40
2018,01,28,15,02,6.40
2018,01,28,15,03,6.40
2018,01,28,15,04,3.20
2018,01,28,15,05,1.60
2018,01,28,15,06,3.20
2018,01,28,15,07,3.20
2018,01,28,15,08,4.80
2018,01,28,15,09,4.80
2018,01,28,15,10,3.20
2018,01,28,15,11,3.20
2018,01,28,15,12,6.40
2018,01,28,15,13,4.80
2018,01,28,15,14,8.10
2018,01,28,15,15,8.10
2018,01,28,15,16,9.60
2018,01,28,15,17,9.60
2018,01,28,15,18,8.10
2018,01,28,15,19,6.40
2018,01,28,15,20,6.40
2018,01,28,15,21,6.40
2018,01,28,15,22,8.10
2018,01,28,15,23,8.10
2018,01,28,15,24,9.60
2018,01,28,15,25,8.10
2018,01,28,15,26,6.40
2018,01,28,15,27,6.40
2018,01,28,15,28,6.40
2018,01,28,15,29,8.10
2018,01,28,15,30,8.10
2018,01,28,15,31,6.40
2018,01,28,15,32,6.40
2018,01,28,15,33,6.40
2018,01,28,15,34,4.80
2018,01,28,15,35,4.80
2018,01,28,15,36,3.20
2018,01,28,15,37,3.20
2018,01,28,15,38,3.20
2018,01,28,15,39,4.80
2018,01,28,15,40,4.80
2018,01,28,15,41,4.80
2018,01,28,15,42,3.20
2018,01,28,15,43,4.80
2018,01,28,15,44,3.20
2018,01,28,15,45,4.80
2018,01,28,15,46,3.20
2018,01,28,15,47,3.20
2018,01,28,15,48,1.60
2018,01,28,15,49,3.20
2018,01,28,15,50,3.20
2018,01,28,15,51,3.20
2018,01,28,15,52,3.20
2018,01,28,15,53,4.80
2018,01,28,15,54,4.80
2018,01,28,15,55,6.40
2018,01,28,15,56,4.80
2018,01,28,15,57,6.40
2018,01,28,15,58,6.40
2018,01,28,15,59,6.40
2018,01,28,16,00,4.80
2018,01,28,16,01,4.80
2018,01,28,16,02,4.80
2018,01,28,16,04,3.20
2018,01,28,16,05,3.20
2018,01,28,16,06,1.60
2018,01,28,16,08,3.20
2018,01,28,16,09,3.20
2018,01,28,16,10,4.80
2018,01,28,16,11,1.60
2018,01,28,16,12,1.60
2018,01,28,16,13,1.60
2018,01,28,16,14,1.60
2018,01,28,16,16,3.20
2018,01,28,16,17,4.80
2018,01,28,16,18,3.20
2018,01,28,16,19,3.20
2018,01,28,16,20,3.20
2018,01,28,16,21,3.20
2018,01,28,16,22,4.80
2018,01,28,16,23,4.80
2018,01,28,16,24,6.40
2018,01,28,16,25,6.40
2018,01,28,16,26,4.80
2018,01,28,16,27,4.80
2018,01,28,16,28,4.80
2018,01,28,16,29,6.40
2018,01,28,16,30,6.40
2018,01,28,16,31,6.40
2018,01,28,16,32,8.10
2018,01,28,16,33,8.10
2018,01,28,16,34,8.10
2018,01,28,16,35,8.10
2018,01,28,16,36,8.10
2018,01,28,16,37,8.10
2018,01,28,16,38,6.40
2018,01,28,16,39,3.20
2018,01,28,16,40,1.60
2018,01,28,16,42,1.60
2018,01,28,16,43,1.60
2018,01,28,16,44,1.60
2018,01,28,16,45,1.60
2018,01,28,16,46,1.60
2018,01,28,16,47,3.20
2018,01,28,16,48,1.60
2018,01,28,16,49,3.20
2018,01,28,16,50,3.20
2018,01,28,16,51,4.80
2018,01,28,16,52,4.80
2018,01,28,16,55,1.60
2018,01,28,16,59,1.60
2018,01,28,17,01,1.60
2018,01,28,17,02,1.60
2018,01,28,17,06,1.60
2018,01,28,17,07,1.60
2018,01,28,17,09,1.60
2018,01,28,17,10,3.20
2018,01,28,17,11,1.60
2018,01,28,17,14,1.60
2018,01,28,17,15,1.60
2018,01,28,17,16,1.60
2018,01,28,17,25,3.20
2018,01,28,17,26,4.80
2018,01,28,17,27,4.80
2018,01,28,17,28,4.80
2018,01,28,17,29,1.60
2018,01,28,17,30,1.60
2018,01,28,17,34,1.60
2018,01,28,17,35,3.20
2018,01,28,17,36,3.20
2018,01,28,17,37,3.20
2018,01,28,17,38,3.20
2018,01,28,17,39,3.20
2018,01,28,17,40,3.20
2018,01,28,17,41,3.20
2018,01,28,17,42,3.20
2018,01,28,17,43,3.20
2018,01,28,17,44,4.80
2018,01,28,17,45,4.80
2018,01,28,17,46,4.80
2018,01,28,17,47,4.80
2018,01,28,17,48,4.80
2018,01,28,17,49,3.20
2018,01,28,17,50,3.20
2018,01,28,17,51,1.60
2018,01,28,17,52,1.60
2018,01,28,17,56,3.20
2018,01,28,17,57,4.80
2018,01,28,17,58,1.60
2018,01,28,17,59,1.60
2018,01,28,18,00,3.20
2018,01,28,18,03,1.60
2018,01,28,18,04,3.20
2018,01,28,18,05,1.60
2018,01,28,18,08,3.20
2018,01,28,18,09,3.20
2018,01,28,18,10,3.20
2018,01,28,18,11,3.20
2018,01,28,18,12,1.60
2018,01,28,18,13,4.80
2018,01,28,18,14,4.80
2018,01,28,18,15,1.60
2018,01,28,18,16,6.40
2018,01,28,18,17,6.40
2018,01,28,18,18,4.80
2018,01,28,18,19,3.20
2018,01,28,18,21,3.20
2018,01,28,18,22,6.40
2018,01,28,18,23,4.80
2018,01,28,18,24,3.20
2018,01,28,18,25,3.20
2018,01,28,18,26,4.80
2018,01,28,18,27,8.10
2018,01,28,18,28,8.10
2018,01,28,18,29,8.10
2018,01,28,18,30,8.10
2018,01,28,18,31,6.40
2018,01,28,18,32,6.40
2018,01,28,18,33,6.40
2018,01,28,18,34,8.10
2018,01,28,18,35,8.10
2018,01,28,18,36,9.60
2018,01,28,18,37,11.30
2018,01,28,18,38,14.50
2018,01,28,18,39,12.90
2018,01,28,18,40,11.30
2018,01,28,18,41,11.30
2018,01,28,18,42,11.30
2018,01,28,18,43,11.30
2018,01,28,18,44,9.60
2018,01,28,18,45,9.60
2018,01,28,18,46,8.10
2018,01,28,18,47,3.20
2018,01,28,18,48,3.20
2018,01,28,18,49,3.20
2018,01,28,18,50,3.20
2018,01,28,18,51,3.20
2018,01,28,19,00,3.20
2018,01,28,19,01,1.60
2018,01,28,19,02,3.20
2018,01,28,19,03,3.20
2018,01,28,19,04,6.40
2018,01,28,19,05,4.80
2018,01,28,19,06,4.80
2018,01,28,19,07,3.20
2018,01,28,19,08,3.20
2018,01,28,19,09,6.40
2018,01,28,19,10,8.10
2018,01,28,19,11,9.60
2018,01,28,19,12,9.60
2018,01,28,19,13,9.60
2018,01,28,19,14,9.60
2018,01,28,19,15,11.30
2018,01,28,19,16,8.10
2018,01,28,19,17,8.10
2018,01,28,19,18,3.20
2018,01,28,19,26,3.20
2018,01,28,19,27,3.20
2018,01,28,19,28,3.20
2018,01,28,19,29,1.60
2018,01,28,19,41,1.60
2018,01,28,19,42,1.60
2018,01,28,19,44,3.20
2018,01,28,19,45,4.80
2018,01,28,19,46,3.20
2018,01,28,19,47,4.80
2018,01,28,19,48,4.80
2018,01,28,19,49,3.20
2018,01,28,19,50,3.20
2018,01,28,19,51,3.20
2018,01,28,19,52,1.60
2018,01,28,19,53,3.20
2018,01,28,19,54,4.80
2018,01,28,19,55,3.20
2018,01,28,19,56,3.20
2018,01,28,19,57,8.10
2018,01,28,19,58,6.40
2018,01,28,19,59,4.80
2018,01,28,20,00,3.20
2018,01,28,20,01,4.80
2018,01,28,20,02,4.80
2018,01,28,20,03,4.80
2018,01,28,20,04,4.80
2018,01,28,20,05,4.80
2018,01,28,20,06,3.20
2018,01,28,20,07,3.20
2018,01,28,20,08,3.20
2018,01,28,20,09,3.20
2018,01,28,20,10,3.20
2018,01,28,20,11,3.20
2018,01,28,20,12,3.20
2018,01,28,20,13,4.80
2018,01,28,20,14,3.20
2018,01,28,20,15,3.20
2018,01,28,20,16,3.20
2018,01,28,20,17,3.20
2018,01,28,20,18,3.20
2018,01,28,20,19,3.20
2018,01,28,20,20,3.20
2018,01,28,20,21,3.20
2018,01,28,20,22,4.80
2018,01,28,20,23,4.80
2018,01,28,20,24,6.40
2018,01,28,20,25,4.80
2018,01,28,20,26,6.40
2018,01,28,20,27,6.40
2018,01,28,20,28,6.40
2018,01,28,20,29,4.80
2018,01,28,20,30,4.80
2018,01,28,20,31,6.40
2018,01,28,20,32,6.40